ELECTRON KICK STAGE R/B, 64230

Orbit data source: Space-Track

ELECTRON KICK STAGE R/B, 64230 is space debris in LEO originally from a launch on Mon, 02 Jun 2025 UTC launched from the Rocket Lab Launch Complex (RLLC). Debris objects in space refer to the collection of defunct objects orbiting the Earth. Examples of debris include non-operational satellites, rocket bodies, and fragments generated from explosions, collisions, or faulty payload assembly.

Not visible in the next 10 days
Identifier
64230, 2025-118A
Orbit
LEO
Country
Flag of USUS
Related business
Manufacturer
Rocket Lab
Mission
Spacecraft
Bus & Motor
KICK STAGE, CURIE
Mass
40 kg wet, ~40 kg dry
Launch date (UTC)
2025-06-02 (1 year ago)
Launch vehicle
Unknown
Launch site
Rocket Lab Launch Complex (RLLC)
Object type
Payload
Rocket body
Debris
Shape & HBR
Trunc Cone, 8.0 m
Radar Cross Section
0.760 m², Large (>1 m²)

Expand to show TLE details & history
Last TLE update: 15 hours ago

TLE from 15 hours ago
0 ELECTRON KICK STAGE R/B
1 64230U 25118A   26171.21876958  .00063733  00000-0  67278-3 0  9990
2 64230  58.9775 101.6725 0015077  62.7371 297.5250 15.63621148 59018
Epoch: 2026-06-20T05:15Z
TLE epoch observation values (Epoch: 2026-06-20T05:15:01.691Z)
Latitude
-0.00004°
Longitude
114.47889°
Altitude
374.037 km
Speed
7.689 km/s
True Right ascension
06h 46m 41s
True Declination
0° 00' 00"
Sunlit
Object was in daylight at epoch
Visualization orbit readout
Latitude
Unknown
Longitude
Unknown
Altitude
Unknown
Speed
Unknown
Apparent Right ascension
Unknown
Apparent Declination
Unknown
Sunlit
N/A
Visualization observer readout
Local Sidereal Time
07:15:43
Azimuth
Unknown
Elevation
Unknown
Doppler factor
Unknown
Orbital elements
Apogee altitude
386.733 km
Perigee altitude
366.365 km
Semi-major axis
6,754.686 km
Eccentricity
0.00151
Inclination
58.9775°
RAAN
101.6725°
Arg. of periapsis
62.7371°
True anomaly
297.37165°
Mean anomaly
297.525°
Eccentric anomaly
297.44834°
Mean motion
3.90963 °/min
Orbital period
92.08 mins
BSTAR
0.00067278
Loading maneuver chart data...
Computing Atmospheric mass density...
Loading historical data...
Loading historical data...
Loading historical data...
Loading historical data...
Loading historical data...
Loading historical data...
Loading historical data...
Other satellites on launch #118 in the year 2025 (2025-06-02 UTC)

Documentation

Showing up to 5 results
|